Weather History for Bishop, CA

Change the Weather History Date:

Wednesday, June 5, 2013

  Actual Average Record
Temperature  
Mean Temperature 76 °F 69 °F  
Max Temperature 99 °F 89 °F 101 °F (2004)
Min Temperature 52 °F 49 °F 35 °F (1980)
Degree Days  
Heating Degree Days 0 1  
Month to date heating degree days 0 8  
Since 1 June heating degree days 0 8  
Since 1 July heating degree days 3851 4166  
Cooling Degree Days 11 5  
Month to date cooling degree days 55 24  
Year to date cooling degree days 141 92  
Since 1 June cooling degree days 55 24  
Growing Degree Days 26 (Base 50)    
Moisture  
Dew Point 26 °F    
Average Humidity 25    
Maximum Humidity 46    
Minimum Humidity 4    
Precipitation  
Precipitation 0.00 in 0.01 in 0.22 in (1948)
Month to date precipitation T 0.04  
Year to date precipitation 0.47 2.92  
Snow  
Snow 0.00 in 0.00 in - ()
Month to date snowfall 0.0 0.0  
Since 1 June snowfall 0.0 0.0  
Since 1 July snowfall 2.8 6.8  
Snow Depth 0.00 in    
Sea Level Pressure  
Sea Level Pressure 29.85 in    
Wind  
Wind Speed 7 mph (NNW)    
Max Wind Speed 30 mph    
Max Gust Speed 44 mph    
Visibility 10 miles    
Events      
T = Trace of Precipitation, MM = Missing Value Source: NWS Daily Summary

Daily Weather History Graph

Daily Weather History Graph

Search for Another Location

Airport:

Trip Planner

Search our weather history database for the weather conditions in past years. The results will help you decide how hot, cold, wet, or windy it might be!

Date:

Astronomy

Jun. 05, 2013 Rise Set
Actual Time 5:33 AM PDT 8:11 PM PDT
Civil Twilight 5:02 AM PDT 8:41 PM PDT
Nautical Twilight 4:24 AM PDT 9:20 PM PDT
Astronomical Twilight 3:41 AM PDT 10:03 PM PDT
Moon 3:37 AM PDT (6/5) 5:44 PM PDT (6/5)
Length of Visible Light 15h 39m
Length of Day
14h 38m
Waning Crescent, 7% of the Moon is Illuminated
Jun 5
Waning Crescent
Jun 8
New
Jun 16
First Quarter
Jun 23
Full
Jun 29
Last Quarter

Hourly Weather History & Observations

Time (PDT) Temp. Dew Point Humidity Pressure Visibility Wind Dir Wind Speed Gust Speed Precip Events Conditions
12:56 AM 64.9 °F 35.1 °F 33% 29.84 in 10.0 mi NNW 8.1 mph - N/A   Unknown
1:56 AM 61.0 °F 35.1 °F 38% 29.86 in 10.0 mi NW 6.9 mph - N/A   Unknown
2:56 AM 55.0 °F 34.0 °F 45% 29.87 in 10.0 mi North 4.6 mph - N/A   Unknown
3:56 AM 54.0 °F 34.0 °F 47% 29.88 in 10.0 mi NW 5.8 mph - N/A   Unknown
4:56 AM 54.0 °F 32.0 °F 43% 29.90 in 10.0 mi North 4.6 mph - N/A   Clear
5:56 AM 59.0 °F 33.1 °F 38% 29.91 in 10.0 mi NNW 6.9 mph - N/A   Clear
6:56 AM 63.0 °F 34.0 °F 34% 29.92 in 10.0 mi NW 5.8 mph - N/A   Clear
7:56 AM 75.0 °F 30.9 °F 20% 29.92 in 10.0 mi NNW 4.6 mph - N/A   Clear
8:56 AM 80.1 °F 27.0 °F 14% 29.92 in 10.0 mi Calm Calm - N/A   Clear
9:56 AM 86.0 °F 24.1 °F 10% 29.90 in 10.0 mi Calm Calm - N/A   Unknown
10:56 AM 91.0 °F 24.1 °F 9% 29.88 in 10.0 mi North 4.6 mph - N/A   Unknown
11:56 AM 91.9 °F 19.9 °F 7% 29.86 in 10.0 mi NW 4.6 mph - N/A   Clear
12:56 PM 93.9 °F 18.0 °F 6% 29.84 in 10.0 mi ENE 4.6 mph - N/A   Clear
1:56 PM 97.0 °F 10.0 °F 4% 29.82 in 10.0 mi ENE 5.8 mph - N/A   Clear
2:56 PM 97.0 °F 12.0 °F 4% 29.81 in 10.0 mi NNE 5.8 mph - N/A   Clear
3:56 PM 98.1 °F 12.9 °F 4% 29.78 in 10.0 mi SW 11.5 mph 18.4 mph N/A   Clear
4:56 PM 97.0 °F 9.0 °F 4% 29.75 in 10.0 mi West 10.4 mph - N/A   Clear
5:56 PM 93.9 °F 24.1 °F 8% 29.75 in 10.0 mi West 13.8 mph 24.2 mph N/A   Clear
6:56 PM 91.0 °F 24.1 °F 9% 29.78 in 10.0 mi West 11.5 mph 20.7 mph 0.00 in   Mostly Cloudy
7:56 PM 86.0 °F 30.0 °F 13% 29.80 in 10.0 mi NNW 20.7 mph 28.8 mph 0.00 in   Clear
8:56 PM 84.9 °F 27.0 °F 12% 29.81 in 10.0 mi WNW 9.2 mph - N/A   Clear
9:56 PM 79.0 °F 30.0 °F 17% 29.83 in 10.0 mi North 9.2 mph - N/A   Clear
10:56 PM 73.9 °F 30.9 °F 21% 29.84 in 10.0 mi North 8.1 mph - N/A   Clear
11:56 PM 70.0 °F 30.9 °F 24% 29.85 in 10.0 mi NW 8.1 mph - N/A   Clear